map of CSL home
Great Circle Mapper logo
CSL - Airport
Location
City:  Los Cabos, Baja California Sur, México
Name:Aeropuerto Cabo San Lucas
ICAO:MMSL
IATA:CSL

Details
Type:Airport (Aerodrome, Airfield)
Latitude:22°56'54"N (22.948450)
Longitude:109°56'19"W (-109.938732)
Elevation:690 ft (210 m)
Variation:8.50°E (WMM2015 magnetic declination)
-0.09° annual change
Runways:1
Longest:7000 × 100 ft (2134 × 30.5 m)

Time
Time Zone:UTC-7 (DST-6)
Local Time:

Weather
METAR:MMSL 010040Z 27017KT 8SM SCT220 22/13 A2986 RMK 8/001

Related Locations
Nearby:
Farthest:RRG: 11960 mi / 19247 km
Plaine Corail, Rodrigues Island, MU

Find:

   beyond  
but within

Other Information
Maps:
NOTAMs:
Links:
Sources:

  
flag of México
flag of Baja California Sur
  

Sectional Chart

Flight Planning
at skyvector.com

Satellite Image

Google Maps Satellite view

 

Copyright © 2004-2016 Karl L. Swartz. All rights reserved.
The Great Circle Mapper name and logo are trademarks of the Great Circle Mapper.
All other trademarks mentioned herein belong to their respective owners.
Please see credits for attibutions and further copyright information.

  Follow gcmap on Facebook Follow gcmap on Twitter Follow gcmap on Google+ GCmap on LinkedIn

hCard Microformat

Geo Microformat